AFR741 EGKK-LFPO

Flight info

Callsign AFR741
Flight time 0h 47m
Altitude 23000
Route BOGNA L612 BENBO Y47 DRAKE/N0382F290 L151 SITET UN859 DVL/N0332F190 A34 BOBSA
Aircraft A20N/M-SDE2E3FGHIRWXY/LB1

Departure

Time 2026-04-14 15:16
Airport London Gatwick Airport (EGKK)

Arrival

Time 2026-04-14 16:03
Airport Paris-Orly Airport (LFPO)
Time Latitude Longitude Altitude Speed Heading
2026-04-14 14:49 51.15859 -0.17939 205 ft 0 kts 78°
2026-04-14 14:59 51.15858 -0.17940 205 ft 1 kts 78°
2026-04-14 14:59 51.15856 -0.17962 215 ft 3 kts 81°
2026-04-14 14:59 51.15853 -0.17994 205 ft 3 kts 86°
2026-04-14 15:00 51.15852 -0.18026 205 ft 3 kts 94°
2026-04-14 15:00 51.15855 -0.18058 214 ft 3 kts 111°
2026-04-14 15:00 51.15864 -0.18083 211 ft 2 kts 154°
2026-04-14 15:00 51.15872 -0.18088 215 ft 1 kts 168°
2026-04-14 15:01 51.15873 -0.18088 214 ft 0 kts 168°
2026-04-14 15:05 51.15871 -0.18087 215 ft 1 kts 168°
2026-04-14 15:06 51.15853 -0.18081 211 ft 4 kts 168°
2026-04-14 15:06 51.15818 -0.18070 216 ft 6 kts 167°
2026-04-14 15:06 51.15768 -0.18052 207 ft 8 kts 167°
2026-04-14 15:06 51.15715 -0.18036 205 ft 8 kts 178°
2026-04-14 15:07 51.15681 -0.18098 208 ft 9 kts 260°
2026-04-14 15:07 51.15670 -0.18218 207 ft 13 kts 261°
2026-04-14 15:07 51.15629 -0.18349 212 ft 14 kts 202°
2026-04-14 15:07 51.15531 -0.18324 205 ft 14 kts 165°
2026-04-14 15:08 51.15441 -0.18291 209 ft 14 kts 168°
2026-04-14 15:08 51.15341 -0.18260 208 ft 14 kts 170°
2026-04-14 15:08 51.15243 -0.18227 211 ft 15 kts 164°
2026-04-14 15:08 51.15210 -0.18113 206 ft 14 kts 77°
2026-04-14 15:09 51.15233 -0.17950 214 ft 16 kts 77°
2026-04-14 15:09 51.15255 -0.17790 208 ft 13 kts 79°
2026-04-14 15:09 51.15276 -0.17632 214 ft 16 kts 79°
2026-04-14 15:09 51.15301 -0.17440 209 ft 17 kts 79°
2026-04-14 15:10 51.15277 -0.17341 205 ft 9 kts 141°
2026-04-14 15:10 51.15222 -0.17281 203 ft 10 kts 146°
2026-04-14 15:10 51.15184 -0.17184 208 ft 12 kts 95°
2026-04-14 15:10 51.15198 -0.17083 201 ft 10 kts 77°
2026-04-14 15:11 51.15215 -0.16963 201 ft 12 kts 77°
2026-04-14 15:11 51.15221 -0.16918 206 ft 0 kts 77°
2026-04-14 15:13 51.15221 -0.16917 206 ft 1 kts 77°
2026-04-14 15:13 51.15224 -0.16881 205 ft 5 kts 89°
2026-04-14 15:13 51.15205 -0.16811 202 ft 9 kts 140°
2026-04-14 15:14 51.15137 -0.16805 200 ft 12 kts 212°
2026-04-14 15:14 51.15106 -0.16890 201 ft 0 kts 252°
2026-04-14 15:15 51.15100 -0.16922 209 ft 22 kts 254°
2026-04-14 15:15 51.15011 -0.17539 213 ft 91 kts 258°
2026-04-14 15:15 51.14834 -0.18826 202 ft 144 kts 258°
2026-04-14 15:15 51.14632 -0.20480 637 ft 151 kts 252°
2026-04-14 15:16 51.14411 -0.22144 1244 ft 152 kts 248°
2026-04-14 15:16 51.14160 -0.23785 1892 ft 152 kts 248°
2026-04-14 15:16 51.13903 -0.25461 2471 ft 163 kts 249°
2026-04-14 15:16 51.13624 -0.27304 2950 ft 181 kts 251°
2026-04-14 15:17 51.13322 -0.29399 3335 ft 209 kts 253°
2026-04-14 15:17 51.13002 -0.31739 4135 ft 219 kts 253°
2026-04-14 15:17 51.12686 -0.34129 4809 ft 222 kts 253°
2026-04-14 15:17 51.12367 -0.36548 5089 ft 224 kts 254°
2026-04-14 15:18 51.11999 -0.38958 5836 ft 223 kts 244°
2026-04-14 15:18 51.11133 -0.40927 6596 ft 217 kts 219°
2026-04-14 15:18 51.09769 -0.41980 6948 ft 224 kts 192°
2026-04-14 15:18 51.08197 -0.41955 7099 ft 229 kts 178°
2026-04-14 15:19 51.06580 -0.41706 7136 ft 248 kts 178°
2026-04-14 15:19 51.04803 -0.41449 7131 ft 259 kts 178°
2026-04-14 15:19 51.03005 -0.41199 7131 ft 259 kts 178°
2026-04-14 15:19 51.01200 -0.40959 7163 ft 262 kts 178°
2026-04-14 15:20 50.99371 -0.40725 7608 ft 265 kts 178°
2026-04-14 15:20 50.97536 -0.40495 8685 ft 264 kts 178°
2026-04-14 15:20 50.95686 -0.40266 9722 ft 269 kts 178°
2026-04-14 15:20 50.93811 -0.40033 10705 ft 273 kts 178°
2026-04-14 15:21 50.91875 -0.39793 11467 ft 284 kts 178°
2026-04-14 15:21 50.89880 -0.39540 12354 ft 291 kts 179°
2026-04-14 15:21 50.87835 -0.39279 13205 ft 299 kts 179°
2026-04-14 15:21 50.85731 -0.39015 13997 ft 307 kts 179°
2026-04-14 15:22 50.83605 -0.38403 14812 ft 316 kts 166°
2026-04-14 15:22 50.81572 -0.36978 15609 ft 325 kts 151°
2026-04-14 15:22 50.79667 -0.34995 16418 ft 330 kts 149°
2026-04-14 15:22 50.77748 -0.32978 17249 ft 333 kts 149°
2026-04-14 15:23 50.75803 -0.30948 18037 ft 337 kts 149°
2026-04-14 15:23 50.73822 -0.28892 18724 ft 343 kts 149°
2026-04-14 15:23 50.71814 -0.26816 19371 ft 348 kts 149°
2026-04-14 15:23 50.69777 -0.24714 20009 ft 353 kts 149°
2026-04-14 15:24 50.67675 -0.22527 20264 ft 372 kts 148°
2026-04-14 15:24 50.65466 -0.20210 20447 ft 391 kts 148°
2026-04-14 15:24 50.63153 -0.17780 20614 ft 409 kts 148°
2026-04-14 15:24 50.60759 -0.15267 21103 ft 416 kts 148°
2026-04-14 15:25 50.58336 -0.12729 21725 ft 421 kts 148°
2026-04-14 15:25 50.55887 -0.10168 22316 ft 426 kts 148°
2026-04-14 15:25 50.53403 -0.07577 22860 ft 431 kts 148°
2026-04-14 15:25 50.50892 -0.04962 23082 ft 434 kts 148°
2026-04-14 15:26 50.48367 -0.02373 23123 ft 433 kts 152°
2026-04-14 15:26 50.45622 -0.00524 23134 ft 428 kts 167°
2026-04-14 15:26 50.42701 0.00159 23142 ft 423 kts 183°
2026-04-14 15:26 50.39804 -0.00327 23134 ft 418 kts 195°
2026-04-14 15:27 50.36990 -0.01418 23132 ft 416 kts 199°
2026-04-14 15:27 50.34206 -0.02613 23129 ft 415 kts 199°
2026-04-14 15:27 50.31408 -0.03766 23131 ft 416 kts 198°
2026-04-14 15:27 50.28597 -0.04853 23126 ft 416 kts 197°
2026-04-14 15:28 50.25779 -0.05892 23134 ft 417 kts 197°
2026-04-14 15:28 50.22916 -0.06665 23131 ft 421 kts 186°
2026-04-14 15:28 50.19983 -0.06403 23130 ft 426 kts 172°
2026-04-14 15:28 50.17139 -0.05020 23133 ft 432 kts 158°
2026-04-14 15:29 50.14389 -0.03101 23124 ft 432 kts 158°
2026-04-14 15:29 50.11648 -0.01179 23127 ft 432 kts 158°
2026-04-14 15:29 50.08845 0.00447 23134 ft 429 kts 166°
2026-04-14 15:29 50.05960 0.01612 23134 ft 428 kts 168°
2026-04-14 15:30 50.03071 0.02742 23126 ft 428 kts 168°
2026-04-14 15:30 50.00180 0.03874 23130 ft 428 kts 168°
2026-04-14 15:30 49.97291 0.05008 23134 ft 428 kts 168°
2026-04-14 15:30 49.94401 0.06142 23139 ft 429 kts 168°
2026-04-14 15:31 49.91511 0.07277 23135 ft 429 kts 168°
2026-04-14 15:31 49.88622 0.08410 23132 ft 429 kts 168°
2026-04-14 15:31 49.85730 0.09543 23139 ft 429 kts 168°
2026-04-14 15:31 49.82841 0.10673 23139 ft 429 kts 168°
2026-04-14 15:32 49.79947 0.11804 23138 ft 429 kts 168°
2026-04-14 15:32 49.77094 0.12917 23140 ft 429 kts 168°
2026-04-14 15:32 49.74206 0.14043 23126 ft 429 kts 168°
2026-04-14 15:32 49.71272 0.15184 23131 ft 429 kts 168°
2026-04-14 15:33 49.68375 0.16311 23139 ft 429 kts 168°
2026-04-14 15:33 49.65480 0.17454 23137 ft 429 kts 168°
2026-04-14 15:33 49.62593 0.18622 23136 ft 429 kts 167°
2026-04-14 15:33 49.59704 0.19795 23126 ft 429 kts 167°
2026-04-14 15:34 49.56815 0.20965 23135 ft 429 kts 167°
2026-04-14 15:34 49.53925 0.22131 23133 ft 429 kts 168°
2026-04-14 15:34 49.51037 0.23291 23128 ft 430 kts 167°
2026-04-14 15:34 49.48133 0.24455 23131 ft 431 kts 167°
2026-04-14 15:35 49.46213 0.25224 23133 ft 431 kts 167°
2026-04-14 15:35 49.42332 0.26777 23130 ft 431 kts 167°
2026-04-14 15:35 49.39433 0.27936 23130 ft 431 kts 167°
2026-04-14 15:35 49.36530 0.29094 23129 ft 431 kts 167°
2026-04-14 15:36 49.34609 0.29860 23129 ft 431 kts 167°
2026-04-14 15:36 49.31710 0.31014 23131 ft 431 kts 167°
2026-04-14 15:36 49.28818 0.32189 23132 ft 432 kts 166°
2026-04-14 15:36 49.25908 0.33442 23135 ft 433 kts 166°
2026-04-14 15:37 49.23014 0.34709 23135 ft 432 kts 166°
2026-04-14 15:37 49.20125 0.35970 23157 ft 432 kts 166°
2026-04-14 15:37 49.17231 0.37224 23157 ft 432 kts 166°
2026-04-14 15:37 49.14338 0.38471 23159 ft 432 kts 166°
2026-04-14 15:38 49.11441 0.39715 23159 ft 432 kts 166°
2026-04-14 15:38 49.08541 0.40950 23157 ft 432 kts 167°
2026-04-14 15:38 49.05636 0.42152 23156 ft 434 kts 167°
2026-04-14 15:38 49.02715 0.43347 23157 ft 434 kts 167°
2026-04-14 15:39 48.99801 0.44538 23161 ft 433 kts 167°
2026-04-14 15:39 48.96890 0.45730 23157 ft 432 kts 167°
2026-04-14 15:39 48.93949 0.46935 23157 ft 433 kts 167°
2026-04-14 15:39 48.91045 0.48124 23159 ft 433 kts 167°
2026-04-14 15:40 48.88136 0.49315 23159 ft 433 kts 167°
2026-04-14 15:40 48.85228 0.50505 23160 ft 433 kts 167°
2026-04-14 15:40 48.82322 0.51692 23159 ft 432 kts 167°
2026-04-14 15:40 48.79455 0.52863 23162 ft 433 kts 167°
2026-04-14 15:41 48.76547 0.54043 23165 ft 433 kts 167°
2026-04-14 15:41 48.73598 0.55229 23123 ft 433 kts 167°
2026-04-14 15:41 48.70690 0.56394 22880 ft 431 kts 167°
2026-04-14 15:41 48.67839 0.57536 22620 ft 427 kts 167°
2026-04-14 15:42 48.64976 0.58683 22339 ft 425 kts 167°
2026-04-14 15:42 48.62120 0.59825 21984 ft 425 kts 167°
2026-04-14 15:42 48.59255 0.60970 21280 ft 428 kts 167°
2026-04-14 15:42 48.56335 0.62135 20582 ft 427 kts 166°
2026-04-14 15:43 48.53506 0.63264 19893 ft 425 kts 166°
2026-04-14 15:43 48.50615 0.64417 19219 ft 422 kts 166°
2026-04-14 15:43 48.47832 0.65525 18642 ft 417 kts 166°
2026-04-14 15:43 48.45003 0.66650 17979 ft 412 kts 166°
2026-04-14 15:44 48.42245 0.67745 17264 ft 408 kts 166°
2026-04-14 15:44 48.39511 0.68829 16623 ft 403 kts 166°
2026-04-14 15:44 48.36815 0.69897 15976 ft 399 kts 166°
2026-04-14 15:44 48.34143 0.70955 15338 ft 395 kts 167°
2026-04-14 15:45 48.31493 0.72002 14728 ft 391 kts 166°
2026-04-14 15:45 48.28879 0.73034 14103 ft 387 kts 167°
2026-04-14 15:45 48.26401 0.74481 13762 ft 378 kts 150°
2026-04-14 15:45 48.24435 0.76956 13581 ft 364 kts 130°
2026-04-14 15:46 48.23137 0.80142 13271 ft 354 kts 114°
2026-04-14 15:46 48.22234 0.83507 13175 ft 345 kts 110°
2026-04-14 15:46 48.21385 0.86904 13172 ft 350 kts 111°
2026-04-14 15:46 48.20491 0.90291 13170 ft 349 kts 112°
2026-04-14 15:47 48.19547 0.93645 13171 ft 350 kts 113°
2026-04-14 15:47 48.18571 0.96978 13170 ft 349 kts 114°
2026-04-14 15:47 48.17579 1.00294 13171 ft 349 kts 114°
2026-04-14 15:47 48.16581 1.03603 13171 ft 349 kts 114°
2026-04-14 15:48 48.15579 1.06917 13170 ft 349 kts 114°
2026-04-14 15:48 48.14576 1.10234 13170 ft 350 kts 114°
2026-04-14 15:48 48.13574 1.13542 13170 ft 348 kts 114°
2026-04-14 15:48 48.12574 1.16842 13171 ft 348 kts 114°
2026-04-14 15:49 48.11573 1.20144 13172 ft 349 kts 114°
2026-04-14 15:49 48.10554 1.23498 13173 ft 349 kts 114°
2026-04-14 15:49 48.09547 1.26808 13173 ft 350 kts 114°
2026-04-14 15:49 48.08543 1.30104 13174 ft 347 kts 114°
2026-04-14 15:50 48.07584 1.33415 13174 ft 347 kts 107°
2026-04-14 15:50 48.07256 1.36969 13149 ft 346 kts 85°
2026-04-14 15:50 48.07803 1.40424 12967 ft 343 kts 64°
2026-04-14 15:50 48.09148 1.43325 12647 ft 340 kts 42°
2026-04-14 15:51 48.11065 1.45332 12332 ft 335 kts 27°
2026-04-14 15:51 48.13137 1.46898 12027 ft 331 kts 25°
2026-04-14 15:51 48.15142 1.48453 11910 ft 319 kts 27°
2026-04-14 15:51 48.17024 1.50076 11784 ft 306 kts 30°
2026-04-14 15:52 48.18813 1.51752 11461 ft 302 kts 31°
2026-04-14 15:52 48.20564 1.53475 11045 ft 300 kts 32°
2026-04-14 15:52 48.22294 1.55220 10621 ft 300 kts 32°
2026-04-14 15:52 48.23993 1.56949 10477 ft 292 kts 32°
2026-04-14 15:53 48.25702 1.58693 10391 ft 294 kts 32°
2026-04-14 15:53 48.27390 1.60414 10197 ft 293 kts 33°
2026-04-14 15:53 48.29062 1.62120 10150 ft 292 kts 32°
2026-04-14 15:53 48.30743 1.63833 10117 ft 291 kts 33°
2026-04-14 15:54 48.34113 1.67268 9532 ft 294 kts 32°
2026-04-14 15:54 48.35800 1.68991 9166 ft 291 kts 32°
2026-04-14 15:54 48.37461 1.70689 8852 ft 286 kts 32°
2026-04-14 15:55 48.39098 1.72364 8545 ft 284 kts 33°
2026-04-14 15:55 48.40720 1.74041 8230 ft 281 kts 33°
2026-04-14 15:55 48.42314 1.75726 7874 ft 279 kts 33°
2026-04-14 15:55 48.43899 1.77410 7443 ft 279 kts 33°
2026-04-14 15:56 48.45483 1.79084 7077 ft 277 kts 33°
2026-04-14 15:56 48.47058 1.80745 6692 ft 276 kts 33°
2026-04-14 15:56 48.48626 1.82397 6290 ft 275 kts 33°
2026-04-14 15:56 48.50192 1.84041 5912 ft 274 kts 34°
2026-04-14 15:57 48.51751 1.85680 5506 ft 273 kts 34°
2026-04-14 15:57 48.53309 1.87321 5097 ft 273 kts 34°
2026-04-14 15:57 48.54854 1.88949 4767 ft 269 kts 35°
2026-04-14 15:57 48.56392 1.90575 4331 ft 270 kts 36°
2026-04-14 15:58 48.57783 1.92468 3917 ft 269 kts 51°
2026-04-14 15:58 48.58855 1.94746 3621 ft 263 kts 60°
2026-04-14 15:58 48.59762 1.97176 3241 ft 261 kts 64°
2026-04-14 15:58 48.60605 1.99570 3085 ft 258 kts 63°
2026-04-14 15:59 48.61471 2.02007 2996 ft 260 kts 63°
2026-04-14 15:59 48.62323 2.04404 3002 ft 262 kts 63°
2026-04-14 15:59 48.63187 2.06839 3000 ft 263 kts 63°
2026-04-14 15:59 48.64038 2.09237 2995 ft 262 kts 63°
2026-04-14 16:00 48.64932 2.11757 2994 ft 262 kts 64°
2026-04-14 16:00 48.65787 2.14169 2976 ft 263 kts 64°
2026-04-14 16:00 48.66645 2.16587 2614 ft 261 kts 63°
2026-04-14 16:00 48.67501 2.18999 2237 ft 244 kts 64°
2026-04-14 16:01 48.68242 2.21091 1923 ft 220 kts 63°
2026-04-14 16:01 48.68947 2.23080 1624 ft 198 kts 64°
2026-04-14 16:01 48.69570 2.24840 1399 ft 175 kts 64°
2026-04-14 16:01 48.70098 2.26328 1166 ft 152 kts 65°
2026-04-14 16:02 48.70601 2.27757 971 ft 155 kts 64°
2026-04-14 16:02 48.71118 2.29203 726 ft 157 kts 63°
2026-04-14 16:02 48.71616 2.30632 557 ft 150 kts 65°
2026-04-14 16:02 48.72092 2.32005 358 ft 144 kts 62°
2026-04-14 16:03 48.72547 2.33259 298 ft 124 kts 60°
2026-04-14 16:03 48.72769 2.33953 297 ft 35 kts 78°
2026-04-14 16:03 48.72793 2.34253 297 ft 31 kts 79°
2026-04-14 16:03 48.72819 2.34511 297 ft 21 kts 82°
2026-04-14 16:04 48.72837 2.34714 297 ft 20 kts 82°
2026-04-14 16:04 48.72858 2.34943 294 ft 23 kts 81°
2026-04-14 16:04 48.72877 2.35141 297 ft 16 kts 82°
2026-04-14 16:04 48.72887 2.35250 293 ft 7 kts 82°
2026-04-14 16:05 48.72891 2.35291 296 ft 0 kts 81°
2026-04-14 16:06 48.72892 2.35301 297 ft 3 kts 81°
2026-04-14 16:06 48.72897 2.35357 293 ft 8 kts 82°
2026-04-14 16:07 48.72907 2.35457 297 ft 6 kts 82°
2026-04-14 16:07 48.72907 2.35461 296 ft 0 kts 82°
2026-04-14 16:07 48.72908 2.35471 295 ft 3 kts 78°
2026-04-14 16:07 48.72915 2.35522 294 ft 0 kts 78°
2026-04-14 16:08 48.72917 2.35539 297 ft 4 kts 78°
2026-04-14 16:08 48.72923 2.35581 297 ft 5 kts 79°
2026-04-14 16:08 48.72911 2.35633 296 ft 6 kts 118°
2026-04-14 16:08 48.72903 2.35654 295 ft 3 kts 122°
2026-04-14 16:09 48.72894 2.35664 293 ft 0 kts 143°